#timestamp,LO_Frequency,Hit,StdDev 
1587128415.3,286046999.3,N
1587128435.2,286046998.4,N
1587128455.0,286046998.5,N
1587128455.9,286046998.5,N
1587128475.8,286046999.2,N
1587128495.6,286046995.4,N
1587128515.4,286046996.2,N
1587128535.3,286046993.7,N
1587128555.1,286046995.1,N
1587128575.9,286046993.7,N
1587128595.7,286046994.6,N
1587128615.5,286046990.1,Y
1587128635.4,286046995.2,P
1587128655.2,286046999.6,N
1587128675.0,286046995.0,N
1587128675.9,286046995.0,N
1587128695.8,286046991.2,Y
1587128715.6,286046989.9,P
1587128735.5,286046991.1,N
1587128785.3,286047011.2,E
1587128795.3,286047003.7,N
1587128815.1,286046992.2,P
1587128816.0,286046992.2,N
1587128835.8,286046990.2,N
1587128855.7,286046989.1,N
1587128875.5,286046988.8,N
1587128895.3,286046984.9,N
1587128915.2,286046985.1,N
1587128935.0,286046980.5,Y
1587128935.9,286046980.5,P
1587128955.8,286046991.5,N
1587128975.6,286046990.9,N
1587128995.5,286046988.8,N
1587129015.3,286046991.4,N
1587129035.1,286046990.4,N
1587129055.9,286046989.2,N
1587129075.7,286046990.9,N
1587129095.5,286046991.6,N
1587129115.4,286046993.2,N
1587129165.2,286046994.4,E
1587129175.2,286046995.2,N
1587129195.9,286047001.2,P
1587129215.7,286046998.2,N
1587129235.6,286047002.6,N
1587129255.4,286046999.9,N
1587129275.2,286047002.3,N
1587129295.1,286046998.5,N
1587129296.0,286046998.5,N
1587129315.8,286046998.6,N
1587129335.7,286046996.5,N
1587129355.5,286046997.8,N
1587129375.3,286046998.5,N
1587129395.2,286047000.6,N
1587129415.9,286047002.5,N
1587129435.7,286046997.3,N
1587129485.6,286046997.1,E
1587129495.5,286046998.2,N
1587129515.4,286047002.4,P
1587129535.2,286047003.5,N
1587129555.0,286047003.8,N
1587129555.9,286047003.8,N
1587129575.8,286046998.6,N
1587129595.6,286046996.4,N
1587129615.5,286046995.9,N
1587129635.3,286046991.9,N
1587129655.1,286046996.4,N
1587129675.9,286046995.1,N
1587129695.7,286046996.1,N
1587129715.5,286046995.2,N
1587129735.4,286046997.4,N
1587129755.2,286046997.8,N
1587129775.1,286046997.7,N
1587129776.0,286046997.7,N
1587129795.8,286046999.4,N
1587129815.6,286046996.1,N
1587129835.5,286046993.9,N
1587129855.3,286046994.7,N
1587129875.1,286046993.5,N
1587129895.9,286046992.0,N
1587129915.7,286046992.3,N
1587129935.6,286046993.8,N
1587129955.4,286046994.6,N
1587129975.2,286046996.4,N
1587129995.1,286046995.9,N
1587129996.0,286046995.9,N
1587130015.8,286046997.7,N
1587130035.7,286046997.3,N
1587130055.5,286046998.0,N
1587130075.3,286046996.8,N
1587130095.2,286046999.4,N
1587130115.0,286046999.6,N
1587130115.9,286046999.6,N
1587130135.8,286046993.3,Y
1587130155.6,286046994.1,P
1587130175.4,286046994.7,P
1587130195.3,286046992.8,P
1587130215.1,286046993.0,Y
1587130235.8,286047001.0,P
1587130255.7,286047000.8,N
1587130275.5,286047001.4,N
1587130295.4,286047003.8,N
1587130315.2,286047007.6,N
1587130335.0,286047004.8,N
1587130335.9,286047004.8,N
1587130355.8,286047005.7,N
1587130375.6,286047006.4,N
1587130395.5,286047002.0,N
1587130415.3,286047001.3,N
1587130435.1,286047005.9,N
1587130455.9,286047008.2,N
1587130475.7,286047008.5,N
1587130495.5,286047008.0,N
1587130515.4,286047004.8,N
1587130535.2,286047007.5,N
1587130555.0,286047004.9,N
1587130556.0,286047004.9,N
1587130575.8,286047007.5,N
1587130595.6,286047006.1,N
1587130615.5,286047009.8,N
1587130635.3,286047008.5,N
1587130655.1,286047009.4,N
1587130675.9,286047011.1,Y
1587130695.7,286047005.7,P
1587130715.6,286047008.8,P
1587130735.4,286047008.9,P
1587130755.2,286047010.3,Y
1587130775.1,286047000.1,P
1587130776.0,286047000.1,N
1587130795.8,286047002.2,N
1587130815.7,286047001.2,N
1587130835.5,286047000.0,N
1587130855.3,286046999.7,N
1587130875.2,286047002.7,N
1587130895.0,286047000.6,N
1587130895.9,286047000.6,N
1587130915.8,286046995.4,N
1587130935.6,286046999.0,N
1587130955.4,286046999.1,N
1587130975.3,286046995.4,N
1587130995.1,286046992.4,N
1587131015.9,286046992.3,N
1587131035.7,286046980.5,Y
1587131055.5,286046979.4,P
1587131075.4,286046977.7,N
1587131095.2,286046977.4,N
1587131115.1,286046980.5,N
1587131116.0,286046980.5,N
1587131135.8,286046982.3,N
1587131155.6,286046982.2,N
1587131175.5,286046985.1,N
1587131195.3,286046986.8,N
1587131215.2,286046987.8,N
1587131235.9,286046989.5,N
1587131255.7,286046989.5,N
1587131275.6,286046985.4,N
1587131295.4,286046984.8,N
1587131315.2,286046986.4,N
1587131335.1,286046976.5,Y
1587131336.0,286046986.3,P
1587131355.8,286046987.6,P
1587131375.7,286046980.4,P
1587131395.5,286046975.4,Y
1587131415.3,286046994.3,P
1587131435.2,286046999.0,N
1587131455.0,286046998.2,N
1587131455.9,286046998.2,N
1587131475.8,286046997.5,N
1587131495.6,286046999.0,N
1587131515.4,286046995.1,N
1587131535.3,286046989.1,N
1587131555.1,286046991.3,N
1587131575.8,286046994.6,N
1587131595.7,286046996.8,N
1587131615.5,286046998.6,N
1587131635.4,286047004.3,N
1587131655.2,286047000.1,N
1587131675.0,286047001.4,N
1587131675.9,286047001.4,N
1587131725.8,286047003.2,E
1587131735.7,286047004.3,N
1587131755.6,286047002.7,P
1587131775.4,286047005.8,P
1587131795.2,286047003.2,N
1587131815.1,286047002.0,N
1587131816.0,286047002.0,N
1587131835.8,286047001.3,N
1587131855.7,286047003.9,N
1587131875.5,286047006.3,Y
1587131895.3,286047001.4,P
1587131915.2,286047000.0,N
1587131935.0,286046998.0,N
1587131935.9,286046998.0,N
1587131955.8,286046995.2,N
1587131975.6,286046995.9,N
1587131995.4,286046996.0,N
